Paul Walker

Recruteur en chef - Crawley Town
4 Avr 2027
Dimanche
Processus

Personnalité

Adaptabilité (16) Ambition (16) Controverse (6) Loyauté (19) Pression (3) Professionnalisme (14) Sportivité (4) Tempérament (19)

Profil

Style d'entraînement Démocratique
Diplôme Continental B
Détermination 5
Gestion des joueurs 4
Motivation 4
Discipline 4
Satisfaction professionnelle
99%
Fatigue
0%
Rôle Recruteur en chef
Salaire 62.7K p/s
Contrat 14.03.2028

Performance

Comportement Bon
Efficacité de l'entraînement
40%
Développement des joueurs
45%
Prévention des blessures
45%
Mise en place tactique
30%

Événements récents

A participé à une réunion de recrutement 7j
A participé à une réunion de recrutement 14j
A participé à une réunion de recrutement 21j
A participé à une réunion de recrutement 28j
A participé à une réunion de recrutement 35j
A participé à une réunion de recrutement 42j
A participé à une réunion de recrutement 49j
A participé à une réunion de recrutement 56j

Suivi en cours

112
Joueur Club Statut Capacité Confiance Observé Dernière observation Dernier vote
Victor Mbaoma Tusker Actif 107 / 90 40% 7 26.12.2026 -
Somila Ntsundwana Bidvest Wits Actif 81 / 93 40% 2 26.12.2026 -
Robert Murić Floriana Actif 99 / 110 40% 5 25.12.2026 -
Naledi Hlongwane Victoria United Actif 92 / 92 40% 1 25.12.2026 -
Maksym Voitikhovskyi Bukovyna Refusé 111 / 83 40% 1 24.12.2026 Plus d'infos
Xiscu Martínez Fleetwood Town Actif 84 / 94 40% 1 23.12.2026 -
Mohamed Ofkir Valerenga Actif 116 / 121 40% 1 23.12.2026 -
Denys Ustymenko Obolon Actif 116 / 98 40% 1 20.12.2026 -
George Lloyd Grodig Actif 91 / 86 40% 1 20.12.2026 -
James Emo Rangers International Actif 73 / 77 40% 2 18.12.2026 -
Derrick Otanga Kakamega Homeboyz Actif 97 / 91 40% 2 16.12.2026 -
Danila Shilov Dinamo Stavropol Actif 92 / 99 40% 2 16.12.2026 -
Samuel Amoah Liberty Professionals Refusé 95 / 86 40% 3 13.12.2026 Refuser
Guillermo Bassi Lokomotiv Plovdiv Actif 114 / 97 40% 1 13.12.2026 -
Wasiu Jimoh Police Union Actif 102 / 103 40% 2 11.12.2026 -
Alejandro Melo Temperley Actif 124 / 125 40% 3 10.12.2026 -
Badr Mousa Petrojet Refusé 97 / 107 40% 2 09.12.2026 Plus d'infos
Jonathan Okoronkwo Torpedo Moscow Actif 82 / 112 40% 1 09.12.2026 -
Alexandr Yushin Torpedo Moscow Actif 87 / 101 40% 2 07.12.2026 -
Ivan Bendera Epicentr Actif 74 / 106 40% 1 07.12.2026 -
Octavio Bianchi HNK Vukovar 1991 Actif 111 / 122 40% 1 06.12.2026 -
Kagiso Malinga Bidvest Wits Actif 112 / 98 40% 3 05.12.2026 -
Andrii Riznyk Ahrobiznes Actif 107 / 78 40% 1 04.12.2026 -
Stefan Vukić Rudes Actif 114 / 116 40% 1 02.12.2026 -
Georg Stojanovski Spartak 1918 Actif 88 / 86 40% 1 02.12.2026 -
Matko Babić Voluntari Actif 95 / 89 40% 1 01.12.2026 -
Antony Medrano Dobrudzha Actif 97 / 96 40% 1 01.12.2026 -
Bautista Arricau OB Actif 107 / 102 40% 1 28.11.2026 -
Miloš Spasić Radnicki Nis Actif 121 / 117 40% 1 25.11.2026 -
Alexandr Dolgov Amkar Actif 96 / 99 40% 1 23.11.2026 -
Oke Kayode Bendel Insurance Actif 90 / 88 40% 2 22.11.2026 -
Diamanka Senghor Mosta Actif 102 / 96 40% 1 22.11.2026 -
Seidu Basit Ashanti Gold Actif 88 / 86 40% 2 21.11.2026 -
Bonginkosi Dlamini Polokwane City Actif 83 / 96 40% 3 20.11.2026 -
Dmytro Shastal Livyi Bereh Actif 86 / 105 40% 1 19.11.2026 -
Ilja Stefanovich Leningradets Actif 87 / 98 40% 1 19.11.2026 -
Vladyslav Vakula Obolon Actif 98 / 101 40% 1 16.11.2026 -
Andrija Majdevac Napredak Actif 89 / 107 40% 1 16.11.2026 -
Jack Vale Alcione Milano Actif 102 / 89 40% 2 13.11.2026 -
Marcel Reguła Zaglebie Actif 83 / 118 40% 1 13.11.2026 -
Marcelo Torres Gimnasia La Plata Actif 128 / 133 40% 2 05.11.2026 -
Jhonathan Caicedo Arda Actif 92 / 96 40% 1 05.11.2026 -
Carlos Gugenheim Almirante Brown Actif 122 / 120 40% 3 04.11.2026 -
Karlo Špeljak Lucko Actif 121 / 117 40% 1 03.11.2026 -
Harry Smith Barnet Actif 89 / 91 40% 1 02.11.2026 -
Franklin Sasere Birkirkara Actif 94 / 90 40% 1 02.11.2026 -
Silas Nwankwo Police Union Actif 84 / 107 40% 2 01.11.2026 -
Facundo Pons San Martín Actif 103 / 128 40% 1 01.11.2026 -
Evidence Mokoena Platinum Stars Actif 88 / 101 40% 4 31.10.2026 -
Bruno Gomes Valletta Actif 110 / 108 40% 3 31.10.2026 -
Emiliano Marcondes OB Actif 95 / 117 40% 3 30.10.2026 -
David Barbona Defensa y Justicia Actif 107 / 135 40% 2 28.10.2026 -
Facundo Castro Nueva Chicago Actif 125 / 121 40% 2 27.10.2026 -
Elías Már Ómarsson Vikingur Actif 121 / 101 40% 1 27.10.2026 -
Migran Ageyan Ufa Actif 96 / 104 40% 1 26.10.2026 -
Anthony Scully Admira Wacker Actif 102 / 89 40% 2 22.10.2026 -
Enzo González Defensores Actif 112 / 117 40% 2 18.10.2026 -
Bruno Zdunić Dugopolje Actif 85 / 88 40% 1 18.10.2026 -
Michael Okoro Katsina United Actif 95 / 80 40% 1 15.10.2026 -
Jules-Anthony Vilsaint Toronto FC Actif 87 / 112 40% 2 13.10.2026 -
Nicolás Molina Temperley Actif 106 / 114 40% 1 12.10.2026 -
Agustín Venezia Iquique Actif 97 / 115 40% 1 11.10.2026 -
Maki Tall New England Revolution Actif 102 / 107 40% 2 09.10.2026 -
Lucio Castillo Colegiales Actif 97 / 94 40% 4 09.10.2026 -
Fortune Bassey Rivers United Actif 102 / 104 40% 1 05.10.2026 -
Brayan Hurtado Antofagasta Actif 118 / 105 40% 1 03.10.2026 -
Marcos Camarda Santiago Wanderers Actif 120 / 112 40% 1 02.10.2026 -
Suraju Lawal Abia Warriors Actif 73 / 98 40% 1 30.09.2026 -
Prince Ukachukwu Kano Pillars Actif 103 / 97 40% 1 29.09.2026 -
Thomas Agyepong Berekum Chelsea Actif 80 / 90 40% 1 28.09.2026 -
Nicolás Sosa Racing Actif 126 / 125 40% 1 17.09.2026 -
Maclyn Biokpo Jenewari Rivers United Actif 91 / 90 40% 2 13.09.2026 -
Juan Cruz Zurbriggen San Telmo Actif 115 / 95 40% 1 13.09.2026 -
Bairon Monroy San Marcos de Arica Actif 89 / 93 40% 1 12.09.2026 -
Sagir Arce Inter Miami CF Actif 105 / 92 40% 1 12.09.2026 -
Sebastian Soto ES Ben Aknoun Actif 81 / 109 40% 1 11.09.2026 -
Darío Rodríguez IFK Mariehamn Actif 120 / 87 40% 1 11.09.2026 -
Paschal Durugbor Warri Wolves Actif 95 / 85 40% 1 09.09.2026 -
Thiago Calone All Boys Actif 121 / 110 40% 1 09.09.2026 -
Nahuel Sena Cerro Actif 113 / 100 40% 1 08.09.2026 -
Suleiman Abdullahi Military Production Actif 75 / 95 40% 1 06.09.2026 -
Thokozani Khumalo Golden Arrows Actif 102 / 86 40% 1 05.09.2026 -
Jeremy Rafanello Philadelphia Union Actif 95 / 88 40% 1 05.09.2026 -
Olwethu Ncube Golden Arrows Actif 88 / 89 40% 1 04.09.2026 -
Tomás Bolzicco Chaco For Ever Actif 105 / 109 40% 1 03.09.2026 -
Kristian Eriksen Molde Actif 138 / 129 40% 1 02.09.2026 -
Brandt Bronico Charlotte Football Club Actif 116 / 111 40% 1 29.08.2026 -
Juan Sebastián Rivero Progreso Actif 100 / 114 40% 1 29.08.2026 -
Timothy Zechariah Rivers United Actif 106 / 83 40% 1 26.08.2026 -
Luke Baartman Chippa United Actif 86 / 99 40% 1 25.08.2026 -
Jay Rodriguez Wrexham Actif 96 / 107 48% 1 24.08.2026 -
Solly Khunyedi Bloemfontein Celtic Actif 111 / 104 40% 1 23.08.2026 -
Ramiro Ruiz Rodríguez Atlético Tucumán Actif 115 / 105 40% 1 23.08.2026 -
Marcus Vinicius Deportivo Pereira Actif 128 / 97 40% 1 22.08.2026 -
Franco Déboli Slaven Belupo Actif 99 / 89 40% 1 22.08.2026 -
Arnaldo Castillo O'Higgins Actif 105 / 101 40% 2 20.08.2026 -
Mauro Martín Progreso Actif 111 / 97 40% 1 17.08.2026 -
Ibrahim Aliyu Houston Dynamo Actif 126 / 112 40% 1 15.08.2026 -
Wandile Duba Bidvest Wits Actif 106 / 107 40% 1 15.08.2026 -
Samuel Adegbenro Dynamo Kyiv Actif 108 / 105 40% 1 12.08.2026 -
Matías Gallegos Antofagasta Actif 111 / 85 40% 1 12.08.2026 -
Marko Musulin Tarxien Rainbows Actif 80 / 86 40% 1 11.08.2026 -
Thabo Nodada Maritzburg United Actif 94 / 101 40% 1 11.08.2026 -
Kermit Manyama Ajax Cape Town Actif 114 / 96 40% 1 10.08.2026 -
Luca Petrasso CF Montreal Actif 106 / 101 40% 1 10.08.2026 -
Kamaldeen Ofori Liberty Professionals Actif 100 / 109 40% 1 05.08.2026 -
Cristian Núñez Huracán Actif 131 / 126 40% 1 05.08.2026 -
Anderson Asiedu Great Olympics Actif 107 / 90 40% 1 04.08.2026 -
Juan Manuel Jorge Defensor Sporting Actif 83 / 124 40% 1 04.08.2026 -
Sebastián de Marco Fenix Actif 96 / 89 40% 1 02.08.2026 -
Daniel Ríos CF Montreal Actif 121 / 114 40% 1 01.08.2026 -
Alejo Cruz Juventud Actif 100 / 116 40% 1 01.08.2026 -